Weather History for KFKL - January, 2014

Change the Weather History Date:

Monday, January 27, 2014

  Actual Average Record
Temperature  
Mean Temperature 18 °F -  
Max Temperature 35 °F 33 °F 62 °F (1944)
Min Temperature 0 °F 15 °F -12 °F (1936)
Degree Days  
Heating Degree Days 48    
Moisture  
Dew Point 5 °F    
Average Humidity 68    
Maximum Humidity 86    
Minimum Humidity 48    
Precipitation  
Precipitation 0.00 in - - ()
Sea Level Pressure  
Sea Level Pressure 29.82 in    
Wind  
Wind Speed 15 mph (West)    
Max Wind Speed 26 mph    
Max Gust Speed 43 mph    
Visibility 7 miles    
Events      
Averages and records for this station are not official NWS values.
T = Trace of Precipitation, MM = Missing Value Source: NWS Daily Summary

Daily Weather History Graph

Daily Weather History Graph

Search for Another Location

Airport or City:

Trip Planner

Search our weather history database for the weather conditions in past years. The results will help you decide how hot, cold, wet, or windy it might be!

Date:

Astronomy

Jan. 27, 2014 Rise Set
Actual Time 7:35 AM EST 5:29 PM EST
Civil Twilight 7:05 AM EST 5:59 PM EST
Nautical Twilight 6:32 AM EST 6:32 PM EST
Astronomical Twilight 5:59 AM EST 7:05 PM EST
Moon 4:15 AM EST (1/27) 2:13 PM EST (1/27)
Length of Visible Light 10h 53m
Length of Day
9h 54m
Waning Crescent, 15% of the Moon is Illuminated
Jan 27
Waning Crescent
Jan 30
New
Feb 6
First Quarter
Feb 14
Full
Feb 22
Last Quarter

Hourly Weather History & Observations

Time (EST) Temp. Windchill Dew Point Humidity Pressure Visibility Wind Dir Wind Speed Gust Speed Precip Events Conditions
12:15 AM 32.0 °F 23.6 °F 24.8 °F 75% 29.45 in 10.0 mi SSW 10.4 mph 18.4 mph N/A   Overcast
12:35 AM 32.0 °F 21.6 °F 24.8 °F 75% 29.44 in 10.0 mi SSW 15.0 mph 18.4 mph N/A   Overcast
12:55 AM 32.0 °F 21.2 °F 24.8 °F 75% 29.42 in 10.0 mi South 16.1 mph 23.0 mph N/A   Overcast
1:15 AM 32.0 °F 20.8 °F 24.8 °F 75% 29.42 in 10.0 mi South 17.3 mph 21.9 mph N/A   Overcast
1:35 AM 32.0 °F 20.5 °F 24.8 °F 75% 29.41 in 10.0 mi South 18.4 mph 26.5 mph N/A   Overcast
1:55 AM 32.0 °F 20.8 °F 24.8 °F 75% 29.40 in 10.0 mi South 17.3 mph - N/A   Overcast
2:15 AM 33.8 °F 22.5 °F 24.8 °F 70% 29.39 in 10.0 mi South 19.6 mph 27.6 mph N/A   Overcast
2:35 AM 33.8 °F 22.2 °F 26.6 °F 75% 29.39 in 10.0 mi SSW 20.7 mph 28.8 mph N/A   Overcast
2:55 AM 35.6 °F 25.5 °F 26.6 °F 70% 29.38 in 10.0 mi SSW 17.3 mph 28.8 mph N/A   Overcast
3:15 AM 35.6 °F 25.9 °F 26.6 °F 70% 29.38 in 10.0 mi SSW 16.1 mph 27.6 mph N/A   Overcast
3:35 AM 35.6 °F 24.5 °F 28.4 °F 75% 29.39 in 10.0 mi SW 20.7 mph 25.3 mph N/A   Overcast
3:55 AM 35.6 °F 24.0 °F 28.4 °F 75% 29.41 in 8.0 mi WSW 23.0 mph 31.1 mph N/A   Overcast
4:15 AM 26.6 °F 14.3 °F 23.0 °F 86% 29.46 in 0.8 mi West 16.1 mph 29.9 mph N/A   Overcast
4:35 AM 26.6 °F 15.2 °F 23.0 °F 86% 29.48 in 1.0 mi WNW 13.8 mph 26.5 mph N/A   Overcast
4:55 AM 24.8 °F 13.4 °F 19.4 °F 80% 29.50 in 1.0 mi West 12.7 mph 25.3 mph N/A   Overcast
5:15 AM 23.0 °F 9.2 °F 19.4 °F 86% 29.53 in 1.5 mi West 17.3 mph 29.9 mph N/A   Overcast
5:35 AM 21.2 °F 4.5 °F 17.6 °F 86% 29.56 in 1.2 mi West 24.2 mph 42.6 mph N/A   Overcast
5:55 AM 21.2 °F 3.9 °F 17.6 °F 86% 29.59 in 1.0 mi West 26.5 mph 33.4 mph N/A   Overcast
6:15 AM 19.4 °F 2.5 °F 14.0 °F 80% 29.61 in 1.2 mi West 23.0 mph 34.5 mph N/A   Overcast
6:35 AM 19.4 °F 4.5 °F 15.8 °F 86% 29.64 in 1.8 mi West 17.3 mph 28.8 mph N/A   Overcast
6:55 AM 14.0 °F -3.0 °F 6.8 °F 73% 29.69 in 0.8 mi WNW 18.4 mph 29.9 mph N/A   Overcast
7:15 AM 12.2 °F -4.3 °F 6.8 °F 79% 29.71 in 1.8 mi WNW 16.1 mph 27.6 mph N/A   Overcast
7:35 AM 12.2 °F -3.7 °F 6.8 °F 79% 29.74 in 1.2 mi WNW 15.0 mph 28.8 mph N/A   Overcast
7:55 AM 12.2 °F -4.8 °F 3.2 °F 67% 29.76 in 2.5 mi West 17.3 mph 26.5 mph N/A   Mostly Cloudy
8:15 AM 12.2 °F -3.7 °F 3.2 °F 67% 29.78 in 2.0 mi WNW 15.0 mph 27.6 mph N/A   Overcast
8:35 AM 10.4 °F -6.0 °F 3.2 °F 73% 29.80 in 2.0 mi WNW 15.0 mph 21.9 mph N/A   Overcast
8:55 AM 10.4 °F -6.6 °F 3.2 °F 73% 29.82 in 7.0 mi West 16.1 mph 26.5 mph N/A   Mostly Cloudy
9:15 AM 10.4 °F -6.6 °F 1.4 °F 67% 29.83 in 5.0 mi WNW 16.1 mph 25.3 mph N/A   Partly Cloudy
9:35 AM 10.4 °F -4.8 °F -0.4 °F 62% 29.85 in 10.0 mi WNW 12.7 mph 25.3 mph N/A   Scattered Clouds
9:55 AM 10.4 °F -5.4 °F 1.4 °F 67% 29.87 in 4.0 mi WNW 13.8 mph 18.4 mph N/A   Mostly Cloudy
10:15 AM 10.4 °F -6.0 °F -0.4 °F 62% 29.88 in 5.0 mi West 15.0 mph 26.5 mph N/A   Mostly Cloudy
10:35 AM 10.4 °F -3.3 °F -0.4 °F 62% 29.90 in 10.0 mi West 10.4 mph 19.6 mph N/A   Mostly Cloudy
10:55 AM 10.4 °F -5.4 °F -0.4 °F 62% 29.91 in 6.0 mi West 13.8 mph 23.0 mph N/A   Overcast
11:15 AM 10.4 °F -4.8 °F 1.4 °F 67% 29.92 in 5.0 mi West 12.7 mph 21.9 mph N/A   Mostly Cloudy
11:35 AM 10.4 °F -6.0 °F 1.4 °F 67% 29.92 in 10.0 mi West 15.0 mph - N/A   Mostly Cloudy
11:55 AM 10.4 °F -6.0 °F -0.4 °F 62% 29.92 in 10.0 mi WNW 15.0 mph 19.6 mph N/A   Mostly Cloudy
12:15 PM 10.4 °F -4.1 °F -0.4 °F 62% 29.92 in 8.0 mi West 11.5 mph 20.7 mph N/A   Mostly Cloudy
12:35 PM 12.2 °F -4.8 °F -0.4 °F 57% 29.93 in 6.0 mi West 17.3 mph - N/A   Mostly Cloudy
12:55 PM 10.4 °F -2.4 °F -2.2 °F 57% 29.92 in 5.0 mi WNW 9.2 mph 18.4 mph N/A   Overcast
1:15 PM 10.4 °F -4.8 °F 1.4 °F 67% 29.92 in 7.0 mi WNW 12.7 mph 16.1 mph N/A   Overcast
1:35 PM 10.4 °F -4.8 °F -2.2 °F 57% 29.92 in 10.0 mi West 12.7 mph 16.1 mph N/A   Overcast
1:55 PM 10.4 °F -6.0 °F -4.0 °F 52% 29.92 in 10.0 mi West 15.0 mph 21.9 mph N/A   Mostly Cloudy
2:15 PM 10.4 °F -7.2 °F -2.2 °F 57% 29.92 in 10.0 mi West 17.3 mph 24.2 mph N/A   Overcast
2:35 PM 12.2 °F -2.5 °F -0.4 °F 57% 29.92 in 10.0 mi WNW 12.7 mph 20.7 mph N/A   Overcast
2:55 PM 10.4 °F -4.8 °F -5.8 °F 48% 29.93 in 10.0 mi WNW 12.7 mph 21.9 mph N/A   Overcast
3:15 PM 10.4 °F -4.1 °F -0.4 °F 62% 29.94 in 10.0 mi West 11.5 mph 16.1 mph N/A   Overcast
3:35 PM 10.4 °F -2.4 °F -2.2 °F 57% 29.94 in 10.0 mi WNW 9.2 mph 16.1 mph N/A   Overcast
3:55 PM 10.4 °F -4.1 °F -0.4 °F 62% 29.95 in 10.0 mi West 11.5 mph 18.4 mph N/A   Mostly Cloudy
4:15 PM 10.4 °F -4.1 °F -0.4 °F 62% 29.97 in 10.0 mi West 11.5 mph 20.7 mph N/A   Scattered Clouds
4:35 PM 8.6 °F -5.5 °F -0.4 °F 67% 29.97 in 2.5 mi West 10.4 mph - N/A   Mostly Cloudy
4:55 PM 8.6 °F -4.7 °F 1.4 °F 73% 29.97 in 1.8 mi West 9.2 mph - N/A   Overcast
5:15 PM 8.6 °F -5.5 °F 1.4 °F 73% 29.98 in 4.0 mi West 10.4 mph - N/A   Overcast
5:35 PM 8.6 °F -5.5 °F -0.4 °F 67% 29.99 in 10.0 mi West 10.4 mph - N/A   Mostly Cloudy
5:55 PM 6.8 °F -9.3 °F -0.4 °F 72% 29.99 in 5.0 mi WSW 12.7 mph 20.7 mph N/A   Mostly Cloudy
6:15 PM 6.8 °F -7.8 °F -2.2 °F 67% 30.00 in 4.0 mi West 10.4 mph - N/A   Mostly Cloudy
6:35 PM 6.8 °F -10.0 °F -2.2 °F 67% 30.01 in 10.0 mi WSW 13.8 mph 19.6 mph N/A   Mostly Cloudy
6:55 PM 6.8 °F -10.0 °F -2.2 °F 67% 30.02 in 10.0 mi West 13.8 mph - N/A   Mostly Cloudy
7:15 PM 5.0 °F -11.6 °F -5.8 °F 61% 30.03 in 10.0 mi West 12.7 mph 16.1 mph N/A   Scattered Clouds
7:35 PM 5.0 °F -12.3 °F -5.8 °F 61% 30.04 in 10.0 mi West 13.8 mph 18.4 mph N/A   Partly Cloudy
7:55 PM 3.2 °F -12.2 °F -5.8 °F 66% 30.05 in 10.0 mi WSW 10.4 mph 18.4 mph N/A   Clear
8:15 PM 3.2 °F -13.1 °F -5.8 °F 66% 30.06 in 10.0 mi WSW 11.5 mph - N/A   Clear
8:35 PM 3.2 °F -14.6 °F -7.6 °F 61% 30.07 in 10.0 mi WSW 13.8 mph 20.7 mph N/A   Partly Cloudy
8:55 PM 3.2 °F -15.9 °F -5.8 °F 66% 30.08 in 10.0 mi West 16.1 mph 24.2 mph N/A   Mostly Cloudy
9:15 PM 3.2 °F -13.1 °F -7.6 °F 61% 30.08 in 9.0 mi West 11.5 mph 21.9 mph N/A   Mostly Cloudy
9:35 PM 1.4 °F -16.1 °F -7.6 °F 66% 30.10 in 9.0 mi WSW 12.7 mph 20.7 mph N/A   Mostly Cloudy
9:55 PM 1.4 °F -17.6 °F -7.6 °F 66% 30.10 in 10.0 mi West 15.0 mph 20.7 mph N/A   Scattered Clouds
10:15 PM 1.4 °F -16.9 °F -9.4 °F 61% 30.11 in 10.0 mi West 13.8 mph 23.0 mph N/A   Partly Cloudy
10:35 PM 1.4 °F -15.3 °F -7.6 °F 66% 30.12 in 10.0 mi West 11.5 mph 16.1 mph N/A   Clear
10:55 PM -0.4 °F -17.6 °F -7.6 °F 72% 30.13 in 10.0 mi WSW 11.5 mph 19.6 mph N/A   Scattered Clouds
11:15 PM -0.4 °F -17.6 °F -9.4 °F 66% 30.14 in 10.0 mi WSW 11.5 mph 20.7 mph N/A   Mostly Cloudy
11:35 PM -0.4 °F -19.9 °F -9.4 °F 66% 30.15 in 8.0 mi WSW 15.0 mph 19.6 mph N/A   Mostly Cloudy
11:55 PM -0.4 °F -20.5 °F -9.4 °F 66% 30.16 in 9.0 mi West 16.1 mph 21.9 mph N/A   Scattered Clouds